Weather History for St. Kitts, Saint Kitts and Nevis

Change the Weather History Date:

Thursday, October 11, 2012

  Actual Average Record
Temperature  
Mean Temperature 82 °F -  
Max Temperature 88 °F 84 °F 89 °F (2010)
Min Temperature 77 °F 76 °F 75 °F (2004)
Cooling Degree Days 18    
Growing Degree Days 32 (Base 50)    
Moisture  
Dew Point 75 °F    
Average Humidity 74    
Maximum Humidity 84    
Minimum Humidity 62    
Precipitation  
Precipitation 0.08 in - - ()
Sea Level Pressure  
Sea Level Pressure 29.90 in    
Wind  
Wind Speed 12 mph ()    
Max Wind Speed 18 mph    
Max Gust Speed -    
Visibility 8.3 miles    
Events Rain    
Averages and records for this station are not official NWS values.
T = Trace of Precipitation, MM = Missing Value Source: Averaged Metar Reports

Daily Weather History Graph

Daily Weather History Graph

Search for Another Location

Airport:

Trip Planner

Search our weather history database for the weather conditions in past years. The results will help you decide how hot, cold, wet, or windy it might be!

Date:

Astronomy

Oct. 11, 2012 Rise Set
Actual Time 6:02 AM AST 5:51 PM AST
Civil Twilight 5:41 AM AST 6:13 PM AST
Nautical Twilight 5:15 AM AST 6:38 PM AST
Astronomical Twilight 4:50 AM AST 7:03 PM AST
Moon 2:11 AM AST (10/11) 2:55 PM AST (10/11)
Length of Visible Light 12h 32m
Length of Day
11h 48m
Waning Crescent, 18% of the Moon is Illuminated
Oct 11
Waning Crescent
Oct 15
New
Oct 21
First Quarter
Oct 29
Full
Nov 6
Last Quarter

Hourly Weather History & Observations

Time (AST) Temp. Heat Index Dew Point Humidity Pressure Visibility Wind Dir Wind Speed Gust Speed Precip Events Conditions
6:00 AM 82.4 °F 89.5 °F 75.2 °F 79% 29.89 in 6.2 mi ENE 15.0 mph - N/A   Mostly Cloudy
7:00 AM 80.6 °F 86.2 °F 75.2 °F 84% 29.89 in 6.2 mi East 10.4 mph - N/A   Scattered Clouds
8:00 AM 81 °F - 75 °F 78% 29.93 in 17 mi East 11.5 mph - -   Partly Cloudy
8:00 AM 80.6 °F 86.2 °F 75.2 °F 84% 29.92 in 6.2 mi East 11.5 mph - N/A   Partly Cloudy
9:00 AM 84.2 °F 94.1 °F 77.0 °F 79% 29.95 in 6.2 mi East 15.0 mph - N/A   Scattered Clouds
10:00 AM 86.0 °F 95.1 °F 75.2 °F 70% 29.95 in 6.2 mi East 16.1 mph - N/A   Partly Cloudy
11:00 AM 85 °F - 77 °F 72% 29.89 in 17 mi ENE 16.1 mph - - Rain Light Rain Showers
11:00 AM 86.0 °F 96.9 °F 77.0 °F 74% 29.95 in 6.2 mi East 15.0 mph - N/A   Mostly Cloudy
12:00 PM 84.2 °F 90.9 °F 73.4 °F 70% 29.92 in 6.2 mi ESE 12.7 mph - N/A   Scattered Clouds
1:00 PM 84.2 °F 92.3 °F 75.2 °F 74% 29.89 in 6.2 mi East 18.4 mph - N/A   Scattered Clouds
2:00 PM 87 °F - 76 °F 63% 29.87 in 12 mi ENE 17.3 mph - -  
2:00 PM 87.8 °F 99.7 °F 77.0 °F 70% 29.86 in - North - - N/A   Scattered Clouds
3:00 PM 87.8 °F 97.6 °F 75.2 °F 66% 29.86 in 6.2 mi ENE 18.4 mph - N/A   Scattered Clouds
4:00 PM 86.0 °F 95.1 °F 75.2 °F 70% 29.86 in 6.2 mi ENE 16.1 mph - N/A   Scattered Clouds
5:00 PM 81 °F - 70 °F 62% 29.88 in 11 mi East 12.7 mph - - Rain Light Rain Showers
5:00 PM 80.6 °F 83.9 °F 69.8 °F 70% 29.86 in 6.2 mi East 12.7 mph - N/A Rain Light Rain Showers
6:00 PM 80.6 °F 84.6 °F 71.6 °F 74% 29.86 in 6.2 mi ENE 13.8 mph - N/A   Partly Cloudy
7:00 PM 80.6 °F 86.2 °F 75.2 °F 84% 29.89 in 6.2 mi East 12.7 mph - N/A   Partly Cloudy
8:00 PM 82 °F - 75 °F 73% 29.91 in 16 mi East 13.8 mph - -   Partly Cloudy
8:00 PM 82.4 °F 89.5 °F 75.2 °F 79% 29.89 in 6.2 mi East 13.8 mph - N/A   Partly Cloudy
9:00 PM 80.6 °F 86.2 °F 75.2 °F 84% 29.92 in 6.2 mi ENE 13.8 mph - N/A   Scattered Clouds